Greenwich, CT

7:52 AM EST on December 09, 2016 (GMT -0500)
Westchester County

Weather History for KHPN - June, 2015

Change the Weather History Date:

Thursday, June 4, 2015

  Actual Average Record
Temperature  
Mean Temperature 57 °F -  
Max Temperature 64 °F 70 °F 82 °F (2016)
Min Temperature 50 °F 52 °F 46 °F (1976)
Degree Days  
Heating Degree Days 8    
Growing Degree Days 7 (Base 50)    
Moisture  
Dew Point 48 °F    
Average Humidity 74    
Maximum Humidity 93    
Minimum Humidity 58    
Precipitation  
Precipitation 0.00 in - - ()
Sea Level Pressure  
Sea Level Pressure 30.25 in    
Wind  
Wind Speed 5 mph (East)    
Max Wind Speed 13 mph    
Max Gust Speed 17 mph    
Visibility 10 miles    
Events      
Averages and records for this station are not official NWS values.
T = Trace of Precipitation, MM = Missing Value Source: NWS Daily Summary

Daily Weather History Graph

Daily Weather History Graph

Search for Another Location

Airport or City:

Trip Planner

Search our weather history database for the weather conditions in past years. The results will help you decide how hot, cold, wet, or windy it might be!

Date:

Astronomy

Jun. 04, 2015 Rise Set
Actual Time 5:23 AM EDT 8:22 PM EDT
Civil Twilight 4:50 AM EDT 8:56 PM EDT
Nautical Twilight 4:08 AM EDT 9:38 PM EDT
Astronomical Twilight 3:19 AM EDT 10:27 PM EDT
Moon 10:07 PM EDT (6/4) 7:21 AM EDT (6/4)
Length of Visible Light 16h 05m
Length of Day
14h 59m
Waning Gibbous, 95% of the Moon is Illuminated
Jun 4
Waning Gibbous
Jun 9
Last Quarter
Jun 16
New
Jun 24
First Quarter
Jul 1
Full

Hourly Weather History & Observations

Time (EDT) Temp. Dew Point Humidity Pressure Visibility Wind Dir Wind Speed Gust Speed Precip Events Conditions
12:56 AM 52.0 °F 48.9 °F 89% 30.24 in 10.0 mi East 4.6 mph - N/A   Overcast
1:56 AM 52.0 °F 48.0 °F 86% 30.25 in 10.0 mi ESE 4.6 mph - N/A   Mostly Cloudy
2:56 AM 51.1 °F 48.0 °F 89% 30.25 in 10.0 mi Calm Calm - N/A   Mostly Cloudy
3:56 AM 50.0 °F 48.0 °F 93% 30.25 in 10.0 mi Calm Calm - N/A   Partly Cloudy
4:56 AM 50.0 °F 48.0 °F 93% 30.26 in 10.0 mi NE 4.6 mph - N/A   Clear
5:56 AM 51.1 °F 48.0 °F 89% 30.27 in 10.0 mi East 6.9 mph - N/A   Mostly Cloudy
6:56 AM 52.0 °F 48.0 °F 86% 30.28 in 10.0 mi East 5.8 mph - N/A   Mostly Cloudy
7:56 AM 53.1 °F 48.0 °F 83% 30.28 in 10.0 mi East 5.8 mph - N/A   Mostly Cloudy
8:56 AM 55.0 °F 48.0 °F 77% 30.29 in 10.0 mi East 6.9 mph - N/A   Scattered Clouds
9:56 AM 57.9 °F 46.9 °F 67% 30.29 in 10.0 mi ESE 6.9 mph - N/A   Mostly Cloudy
10:56 AM 60.1 °F 48.0 °F 64% 30.29 in 10.0 mi East 8.1 mph - N/A   Mostly Cloudy
11:56 AM 61.0 °F 48.0 °F 62% 30.27 in 10.0 mi ENE 12.7 mph 17.3 mph N/A   Mostly Cloudy
12:56 PM 61.0 °F 46.9 °F 60% 30.27 in 10.0 mi East 6.9 mph - N/A   Partly Cloudy
1:56 PM 63.0 °F 48.0 °F 58% 30.26 in 10.0 mi ESE 10.4 mph - N/A   Partly Cloudy
2:56 PM 62.1 °F 46.9 °F 58% 30.26 in 10.0 mi ESE 10.4 mph - N/A   Mostly Cloudy
3:56 PM 63.0 °F 48.9 °F 60% 30.24 in 10.0 mi East 6.9 mph - N/A   Mostly Cloudy
4:56 PM 64.0 °F 50.0 °F 60% 30.24 in 10.0 mi Variable 6.9 mph - N/A   Overcast
5:56 PM 64.0 °F 48.9 °F 58% 30.23 in 10.0 mi East 8.1 mph - N/A   Mostly Cloudy
6:56 PM 62.1 °F 48.0 °F 60% 30.23 in 10.0 mi ESE 5.8 mph - N/A   Mostly Cloudy
7:56 PM 60.1 °F 48.0 °F 64% 30.21 in 10.0 mi ESE 6.9 mph - N/A   Mostly Cloudy
8:56 PM 57.0 °F 46.9 °F 69% 30.21 in 10.0 mi ESE 4.6 mph - N/A   Scattered Clouds
9:56 PM 55.9 °F 48.9 °F 77% 30.22 in 10.0 mi ESE 4.6 mph - N/A   Clear
10:56 PM 55.0 °F 48.9 °F 80% 30.21 in 10.0 mi SSE 5.8 mph - N/A   Clear
11:56 PM 54.0 °F 48.9 °F 83% 30.21 in 10.0 mi ESE 4.6 mph - N/A   Clear